Terminal Aerodrome Forecast
Issued by NWS Huntsville, AL

Home | Current Version | Previous Version | Text Only | Print | Product List | Glossary On
Versions: 1 2 3 4 5 6 7 8 9 10 11 12 13 14 15 16 17 18 19 20 21 22 23 24 25 26 27 28 29 30 31 32 33 34 35 36 37 38 39 40 41 42 43 44
000
FTUS44 KHUN 200919 AAA
TAFMSL
TAF AMD
KMSL 200919Z 2009/2106 00000KT P6SM SCT030
      TEMPO 2011/2013 5SM BR
     FM201400 27006KT P6SM SCT040 SCT080
     FM210100 22003KT P6SM FEW060=

USA.gov is the U.S. government's official web portal to all federal, state and local government web resources and services.